Regional Weather Roundup
Issued by NWS Sioux Falls, SD

Home | Current Version | Previous Version | Text Only | Print | Product List | Glossary On
Versions: 1 2 3 4 5 6 7 8 9 10 11 12 13 14 15 16 17 18 19 20 21 22 23 24 25 26 27 28 29 30 31 32 33 34 35 36 37 38 39 40 41 42 43 44 45 46 47 48 49 50
000
ASUS43 KFSD 011102
RWRFSD

WEATHER ROUNDUP FOR SE SOUTH DAKOTA/SW MINNESOTA/NW IOWA
NATIONAL WEATHER SERVICE SIOUX FALLS SD
600 AM CDT MON SEP 01 2014

NOTE: "FAIR" INDICATES FEW OR NO CLOUDS BELOW 12,000 FEET WITH NO
SIGNIFICANT WEATHER AND OR OBSTRUCTIONS TO VISIBILITY.


SDZ038>040-050-052>070-011200-
SOUTHEAST SOUTH DAKOTA

CITY           SKY/WX    TMP DP  RH WIND       PRES   REMARKS
CHAMBERLAIN    CLEAR     56  54  92 W9        29.81S
HURON          PTCLDY    58  57  97 W6        29.75R
MADISON        FAIR      57  57 100 NW7       29.75R FOG
MITCHELL       CLEAR     60  59  96 W7        29.76S
SIOUX FALLS    LGT RAIN  63  60  90 W6        29.72S
WINNER         FAIR      56  53  90 W10       29.84S
YANKTON        MOCLDY    63  59  88 W14G22    29.75R
$$

MNZ071-072-080-081-089-090-097-098-011200-
SOUTHWEST MINNESOTA

CITY           SKY/WX    TMP DP  RH WIND       PRES   REMARKS
FAIRMONT       CLOUDY    64  61  88 NW7       29.68R
JACKSON        MOCLDY    63  61  94 W3        29.72R
LUVERNE        MOCLDY    63  59  88 NW7       29.71F
MARSHALL       MOCLDY    63  59  88 NW6       29.69S
MONTEVIDEO     CLOUDY    63  61  94 CALM      29.69S
PIPESTONE      DRIZZLE   63  61  94 N7        29.70F
REDWOOD FALLS  CLOUDY    64  63  96 NW8       29.66S
TRACY          MOCLDY    63  62  96 CALM      29.70S
WINDOM         MOCLDY    63  61  94 CALM      29.70R
WORTHINGTON    MOCLDY    63  61  94 NW6       29.72S
$$

IAZ001>003-012>014-020>022-031-032-NEZ013-014-SDZ071-011200-
NORTHWEST IOWA

CITY           SKY/WX    TMP DP  RH WIND       PRES   REMARKS
CHEROKEE       CLEAR     61  61 100 W3        29.71R
DENISON        MOCLDY    66  66 100 SW6       29.71R FOG
ESTHERVILLE    CLOUDY    64  63  96 W6        29.69S
LE MARS        PTCLDY    61  61 100 CALM      29.73R
ORANGE CITY    PTCLDY    63  57  82 NW6       29.72S
SHELDON        MOCLDY    61  61 100 NW5       29.71S
SIOUX CITY     CLEAR     60  59  96 W5        29.74R
SPENCER        MOCLDY    64  63  96 W8        29.70S FOG
STORM LAKE     CLOUDY    64  64 100 W9        29.71S FOG
$$

ABBREVIATIONS USED IN REMARKS
   TC - TEMPERATURE IN CELSIUS
  WCI - WIND CHILL INDEX
   HX - HEAT INDEX
  VSB - VISIBILITY




USA.gov is the U.S. government's official web portal to all federal, state and local government web resources and services.